Location: B�l� Hl�na
(50.5311°N, 14.9233°E)
Time: 13:10:57
(UTC+00:00)

Daily predictions for brighter satellites

Satellite Brightness Start Highest point End
(mag) Time Altitude Azimuth Time Altitude Azimuth Time Altitude Azimuth
Iridium 4 Rocket 4.5 16:14:42 10° NNE 16:19:12 26° ENE 16:23:22 10° SE
Okean O Rocket 1.6 16:14:55 10° SSE 16:19:18 68° ENE 16:23:42 10° N
CZ-4C R/B 3.7 16:14:30 10° WNW 16:19:26 29° NNW 16:25:16 10° NE
ADEOS Rocket 3.9 16:15:56 10° N 16:21:31 47° WNW 16:26:45 10° SW
CZ-4 R/B 2.6 16:22:09 10° ESE 16:25:09 21° ENE 16:28:08 10° NNE
USA 234 3.6 16:19:25 10° ENE 16:25:49 57° NNW 16:32:11 10° W
ERS-2 4.0 16:25:13 10° ENE 16:26:50 12° E 16:28:27 10° ESE
Cosmos 2278 Rocket 3.4 16:25:59 10° SSE 16:30:13 22° ESE 16:34:28 10° NE
Okean-O 3.7 16:27:37 10° ESE 16:31:11 24° ENE 16:34:46 10° N
CORIOLIS 4.3 16:29:01 10° SSE 16:34:24 81° WSW 16:39:48 10° NNW
CZ-2C R/B 3.5 16:30:55 10° SE 16:36:12 48° ENE 16:41:44 10° N
NOSS 2-1 (E) 3.5 16:33:07 10° SSW 16:36:14 39° SE 16:39:26 11° NE
Cosmos 1340 3.4 16:33:33 10° SSE 16:36:55 32° E 16:40:18 10° NNE
Cosmos 1346 Rocket 4.4 16:34:33 10° SE 16:36:55 16° E 16:39:18 10° NE
COSMOS 2455 3.5 16:31:02 10° SW 16:36:57 55° NW 16:42:55 10° NNE
CZ-4B R/B 3.6 16:32:12 10° S 16:37:48 75° WSW 16:43:30 10° NNW
Aureole 2 Rocket 3.9 16:36:14 10° WSW 16:39:00 30° WNW 16:41:49 10° N
SMAP 3.9 16:37:38 10° S 16:42:13 57° W 16:46:50 10° NNW
Cosmos 2058 Rocket 4.3 16:40:25 10° NNW 16:44:46 47° W 16:49:06 10° SSW
Cosmos 1455 2.7 16:42:58 10° NNW 16:46:47 65° W 16:50:35 10° S
Cosmos 405 3.3 16:43:52 10° N 16:47:15 41° ENE 16:50:36 10° SE
ARGOS 3.9 16:44:56 10° ESE 16:49:29 29° ENE 16:54:04 10° N
Cosmos 1626 Rocket 3.5 16:46:45 10° S 16:51:09 72° E 16:55:35 10° NNE
Cosmos 1092 Rocket 4.0 16:45:58 10° S 16:51:58 58° E 16:58:00 10° NNE
Cosmos 2263 Rocket 4.1 16:49:21 10° W 16:53:45 22° NW 16:58:08 10° NNE
Cosmos 1898 Rocket 3.5 16:49:23 10° S 16:54:34 64° ESE 16:59:45 10° NNE
CZ-4C R/B 4.3 16:51:58 10° N 16:54:57 38° WNW 16:57:58 10° SW
CZ-2C R/B 4.1 16:52:34 10° NE 16:56:05 17° E 16:59:35 10° SE
TELKOM 3 2.9 16:55:03 10° W 16:57:11 66° S 16:58:27 22° ESE
Cosmos 1680 Rocket 4.2 16:52:20 10° NNW 16:57:29 58° WSW 17:02:34 10° S
Nadezhda 4 Rocket 4.1 16:54:33 10° SSW 17:00:47 80° W 17:06:58 10° N
Cosmos 1328 3.8 16:59:27 10° S 17:03:23 60° E 17:07:17 10° NNE
CZ-4B R/B 1.3 17:00:18 10° NNE 17:03:35 59° ESE 17:06:46 10° S
MOS 1 Rocket 3.2 17:01:06 10° NNE 17:05:16 49° E 17:09:28 10° S
Meteor 2-15 4.5 16:59:13 10° N 17:05:19 57° ENE 17:11:21 10° SSE
CZ-2D R/B 3.1 17:02:18 10° SSE 17:06:08 82° ENE 17:09:59 10° NNW
Meteor 2-8 Rocket 4.4 17:01:37 10° N 17:07:46 80° E 17:13:53 10° SSE
Cosmos-2242 3.1 17:04:39 10° N 17:08:52 52° ENE 17:13:05 10° SSE
Meteor 1-11 4.4 17:04:17 10° SSE 17:09:41 48° E 17:15:05 10° NNE
COSMO-SKYMED 1 2.5 17:08:18 10° NNE 17:12:40 70° ESE 17:16:59 10° S
BREEZE-M DEB (TANK) 2.1 17:14:01 10° W 17:16:11 58° S 17:17:14 27° ESE
Cosmos 1937 Rocket 3.5 17:11:56 10° SSW 17:17:14 73° ESE 17:22:33 10° NNE
Cosmos 1758 Rocket 3.6 17:13:28 10° S 17:17:51 57° E 17:22:17 10° NNE
Cosmos 2098 Rocket 4.3 17:11:23 10° S 17:18:42 65° E 17:25:41 10° NNE
USA 290 2.2 17:18:01 10° NNW 17:21:12 80° WSW 17:24:23 10° SSE
CSL-04 Debris 4.3 17:17:48 10° SE 17:22:58 49° ENE 17:28:09 10° N
SL-08 RB Rocket 4.3 17:21:14 15° ESE 17:24:18 33° ENE 17:28:20 10° N
Cosmos 1833 Rocket 2.8 17:19:32 10° NNW 17:25:11 81° WSW 17:30:48 10° SSE
NOSS 2-1 (C) 3.2 17:22:02 10° SW 17:25:20 63° NW 17:27:19 23° NNE
Cosmos 2221 4.0 17:24:41 10° NNE 17:26:47 20° NE 17:26:47 20° NE
H-2A R/B 1.9 17:23:28 10° SSE 17:28:31 72° ENE 17:33:46 10° N
H-2A R/B 3.5 17:25:38 10° N 17:29:43 37° WNW 17:33:41 10° SW
Cosmos 1939 Rocket 4.5 17:27:12 10° SSW 17:31:00 37° W 17:34:47 10° NNW
Helios 1A Rocket 2.9 17:27:01 10° SSE 17:31:05 60° ENE 17:35:11 10° N
NOSS 2-1 (D) 3.4 17:28:01 10° WSW 17:31:17 55° NW 17:33:06 25° NNE
Cosmos 2344 4.5 17:22:51 10° NW 17:32:00 81° SW 17:44:49 10° SE
SeaSat 1 4.3 17:28:53 10° NNE 17:32:53 25° NW 17:36:52 10° W
Cosmos 389 Rocket 3.7 17:29:58 10° N 17:32:01 26° NNE 17:32:01 26° NNE
Cosmos 1602 Rocket 4.2 17:30:26 10° SSW 17:34:43 58° WNW 17:39:06 10° N
CZ-3B R/B 2.9 17:32:33 10° WNW 17:35:16 50° SSW 17:43:10 10° SE
Cosmos 44 4.1 17:30:44 10° WSW 17:35:32 51° NW 17:39:31 16° NNE
Cosmos 2026 Rocket 4.0 17:29:46 10° S 17:35:56 89° W 17:42:16 10° N
Cosmos 1417 Rocket 4.4 17:32:05 10° N 17:38:18 68° ENE 17:44:35 10° SSE
SJ 16-02 3.5 17:34:50 10° WSW 17:38:27 24° NW 17:42:04 10° N
Meteor 2-15 Rocket 4.4 17:32:16 10° N 17:38:27 78° ENE 17:44:37 10° SSE
YAOGAN 1 2.5 17:35:49 10° SSE 17:40:09 87° WSW 17:44:31 10° NNW
Cosmos 1689 Rocket 3.0 17:41:34 34° SSE 17:41:34 34° SSE 17:43:24 10° S
Cosmos 1553 Rocket 3.9 17:35:04 10° N 17:41:31 81° E 17:47:51 10° SSE
SJ-11-01 4.2 17:37:16 10° SSE 17:41:57 84° ENE 17:46:40 10° NNW
Aureole 3 Rocket 3.6 17:39:13 10° NNW 17:42:19 47° W 17:46:05 10° S
Cosmos 1844 Rocket 4.2 17:38:56 10° WSW 17:43:58 32° NW 17:49:01 10° NNE
COSMOS 2406 4.0 17:38:49 10° NW 17:44:27 54° WSW 17:50:01 10° S
Cosmos 2082 Rocket 2.1 17:39:17 10° NNW 17:45:03 84° ENE 17:50:45 10° SSE
HJ-1C 3.2 17:47:04 50° SE 17:47:48 74° ENE 17:51:09 10° N
Meteor 1-27 4.1 17:42:46 10° NNW 17:48:25 89° ENE 17:53:59 10° S
Cosmos 1825 Rocket 3.4 17:45:18 10° S 17:49:42 86° E 17:54:10 10° N
X-37B 2.8 17:48:21 10° WSW 17:50:42 19° SSW 17:51:36 17° S
deb Kosmos-1763 3.9 17:48:01 10° NNW 17:51:38 86° WSW 17:52:52 39° SSE
NOSS 2-2 (E) 4.3 17:47:29 10° NW 17:52:40 66° NE 17:56:04 30° ESE
ISS -3.8 17:50:30 10° W 17:53:50 75° N 17:53:50 75° N
MetOp-A 4.4 17:56:25 42° E 17:57:09 44° ENE 18:02:13 10° N
ATLAS 2AS CENTAUR R/B 4.0 17:50:54 10° WNW 17:57:39 30° N 18:00:55 22° NE
Iridium 4 Rocket 4.3 17:54:17 10° NNW 17:59:33 52° W 18:04:20 10° SSW
ATLAS 5 CENTAUR R/B 3.7 17:56:12 10° NW 17:59:37 19° N 18:00:57 17° NNE
Cosmos 2315 Rocket 4.2 17:53:55 10° N 17:59:54 45° ENE 18:01:36 37° ESE
CZ-4 R/B 2.4 17:56:04 10° S 17:59:55 45° W 18:03:45 10° NNW
ERS-2 2.5 17:58:38 23° N 18:00:46 63° WNW 18:04:21 10° SSW
Cosmos 883 Rocket 4.5 17:54:56 10° N 18:01:02 54° ENE 18:05:20 19° SE
CSL-04 Rocket 3.6 17:58:42 10° SSE 18:04:10 88° WSW 18:09:45 10° NNW
Okean-O 3.6 18:03:08 10° S 18:07:24 47° W 18:11:43 10° NNW
S3M 3.8 18:01:52 10° N 18:08:01 88° E 18:14:10 10° S
USA 234 3.6 18:05:52 35° ENE 18:08:19 53° N 18:14:39 10° WNW
CZ-4C R/B 3.8 18:04:28 10° NW 18:09:56 29° NNE 18:11:46 26° NE
Ariane Rocket 3.8 18:11:25 34° NNE 18:11:25 34° NNE 18:14:49 10° N
Cosmos 1346 Rocket 3.5 18:09:00 10° SSW 18:12:51 53° WNW 18:15:12 22° N
Cosmos 1655 Rocket 3.8 18:06:53 10° S 18:13:03 72° E 18:19:16 10° NNE
Cosmos 2278 Rocket 2.3 18:08:03 10° SW 18:13:44 73° WNW 18:17:11 25° NNE
Cosmos 1953 Rocket 3.6 18:11:52 10° SSW 18:16:12 77° W 18:17:58 35° N
USA 281 4.2 18:17:58 29° NE 18:17:58 29° NE 18:23:05 10° NNW
SAR-Lupe-4 4.5 18:17:50 38° NNW 18:18:42 47° WNW 18:22:08 10° SW
Cosmos 2292 Rocket 3.5 18:16:19 10° SSW 18:20:41 73° SW 18:20:41 73° SW
Cosmos 44 Rocket 3.5 18:19:04 10° SSW 18:23:19 58° SSE 18:23:19 58° SSE
ARGOS 3.8 18:24:16 10° S 18:29:30 53° W 18:34:48 10° NNW
Meteor 2-2 Rocket 4.3 18:23:36 10° NNW 18:29:37 89° W 18:34:20 17° S
Cosmos 1869 4.0 18:26:15 10° NNW 18:30:02 51° W 18:30:11 51° WSW
NOSS 2-2 (D) 4.3 18:26:53 10° NW 18:32:09 89° NE 18:33:29 59° SE
CZ-2C R/B 2.6 18:33:46 26° NNE 18:37:06 89° WNW 18:42:45 10° SSW
Cosmos 494 Rocket 4.2 18:36:35 10° NNW 18:41:42 65° WSW 18:42:29 57° SSW
Cosmos 2150 Rocket 4.1 18:41:15 10° SSW 18:45:58 71° WSW 18:45:58 71° WSW
MOS 1 4.4 18:51:17 64° N 18:51:17 64° N 18:56:07 10° NNW
Cosmos 909 Rocket 4.1 18:53:55 10° NW 19:00:09 75° NNE 19:00:09 75° NNE
ATLAS 5 CENTAUR R/B 4.4 19:41:21 10° NW 19:42:29 16° NNW 19:42:29 16° NNW
ATLAS 2AS CENTAUR R/B 3.9 19:43:08 10° NW 19:48:21 38° N 19:48:21 38° N
USA 234 4.0 19:53:12 46° NW 19:53:12 46° NW 19:57:38 10° WNW
Cosmos 2278 Rocket 4.4 19:54:43 10° W 19:58:51 20° NW 19:59:05 20° NNW
CZ-4C R/B 3.9 19:53:12 10° NW 19:56:58 35° NNW 19:56:58 35° NNW
